Waarnemingen

Advertentie
Mijn weer
Antwerpen, België (6450): temperatuur & dauwpunt: 11.10.2017 11:00:00 - 17.10.2017 11:00:00 (CEST)Antwerpen, België (6450): windsnelheid & windstoten: 11.10.2017 11:00:00 - 17.10.2017 11:00:00 (CEST)Antwerpen, België (6450): windrichting: 11.10.2017 11:00:00 - 17.10.2017 11:00:00 (CEST)Antwerpen, België (6450): luchtdruk: 11.10.2017 11:00:00 - 17.10.2017 11:00:00 (CEST)Antwerpen, België (6450): zicht: 11.10.2017 11:00:00 - 17.10.2017 11:00:00 (CEST)
Datum & Tijd tt [°C] td [°C] ff [km/u] ff [kn] fx [km/u] fx [kn] dd ppp [hPa] vv [km]
17.10.2017 11:00:00 14,8 11,8 9 5 - - ZW 1022,4 9
17.10.2017 10:00:00 14,1 11,7 8 4 11 6 ZW 1022,6 10
17.10.2017 09:00:00 13,9 11,5 8 4 11 6 ZZW 1022,4 9
17.10.2017 08:00:00 14,0 11,2 5 3 - - ZZW 1022,2 10
17.10.2017 07:00:00 14,6 11,3 8 4 14 8 ZW 1022,0 10
17.10.2017 06:00:00 14,9 11,5 9 5 22 12 ZW 1022,0 10
17.10.2017 05:00:00 15,7 11,9 11 6 - - W 1021,9 10
17.10.2017 04:00:00 16,2 12,1 13 7 22 12 W 1021,7 10
17.10.2017 03:00:00 16,7 12,5 13 7 22 12 W 1021,4 10
17.10.2017 02:00:00 17,5 14,4 13 7 - - WZW 1021,1 10
17.10.2017 01:00:00 18,0 14,4 11 6 18 10 ZW 1020,8 10
17.10.2017 00:00:00 18,5 14,2 9 5 14 8 ZW 1020,6 10
16.10.2017 23:00:00 19,2 13,9 11 6 - - ZZW 1020,2 10
16.10.2017 22:00:00 19,4 13,9 5 3 14 8 Z 1019,9 10
16.10.2017 21:00:00 20,3 13,4 9 5 14 8 Z 1019,9 10
16.10.2017 20:00:00 21,8 13,5 11 6 - - Z 1019,5 10
16.10.2017 19:00:00 23,1 13,1 13 7 22 12 Z 1018,9 10
16.10.2017 18:00:00 24,6 14,1 13 7 25 14 Z 1018,7 10
16.10.2017 17:00:00 25,7 15,3 15 8 - - ZZO 1018,9 10
16.10.2017 16:00:00 25,8 14,7 18 10 29 16 Z 1019,0 10
16.10.2017 15:00:00 25,6 15,5 18 10 25 14 Z 1019,8 10
16.10.2017 14:00:00 24,2 15,5 15 8 - - Z 1020,5 10
16.10.2017 13:00:00 23,0 15,6 15 8 25 14 Z 1021,0 10
16.10.2017 12:00:00 21,7 15,3 15 8 25 14 Z 1021,4 10
16.10.2017 11:00:00 19,6 14,9 13 7 - - Z 1021,5 10
16.10.2017 10:00:00 18,5 14,8 5 3 18 10 Z 1021,4 10
16.10.2017 09:00:00 17,3 14,2 13 7 22 12 Z 1020,8 10
16.10.2017 08:00:00 17,2 14,1 15 8 - - ZZW 1020,5 10
16.10.2017 07:00:00 17,1 14,1 9 5 14 8 Z 1020,5 10
16.10.2017 06:00:00 17,2 14,3 9 5 14 8 Z 1020,6 10
16.10.2017 05:00:00 15,6 13,8 5 3 - - ZZO 1021,0 10
16.10.2017 04:00:00 14,2 12,7 8 4 14 8 - 1020,7 10
16.10.2017 03:00:00 15,4 13,4 5 3 18 10 ZZO 1020,8 10
16.10.2017 02:00:00 17,2 13,8 11 6 - - Z 1020,9 10
16.10.2017 01:00:00 17,5 13,8 11 6 18 10 ZZW 1021,0 10
16.10.2017 00:00:00 17,7 13,7 9 5 18 10 ZZW 1021,1 10
15.10.2017 23:00:00 17,7 13,2 11 6 - - Z 1021,0 10
15.10.2017 22:00:00 17,7 12,4 9 5 11 6 Z 1020,9 10
15.10.2017 21:00:00 18,7 12,2 8 4 14 8 Z 1020,8 10
15.10.2017 20:00:00 19,6 12,0 13 7 - - Z 1020,4 10
15.10.2017 19:00:00 21,4 11,4 11 6 22 12 Z 1020,0 10
15.10.2017 18:00:00 23,7 11,8 13 7 22 12 Z 1019,8 10
15.10.2017 17:00:00 24,4 10,9 13 7 - - Z 1020,2 10
15.10.2017 16:00:00 24,3 11,4 13 7 22 12 Z 1020,6 10
15.10.2017 15:00:00 23,6 12,1 15 8 22 12 Z 1021,0 10
15.10.2017 14:00:00 22,5 12,6 15 8 - - Z 1021,5 10
15.10.2017 13:00:00 20,5 13,2 13 7 18 10 ZZO 1021,9 10
15.10.2017 12:00:00 18,3 13,0 11 6 18 10 ZZO 1022,5 10
15.10.2017 11:00:00 16,0 12,5 11 6 - - ZZO 1023,0 10
15.10.2017 10:00:00 13,5 11,2 11 6 14 8 ZZO 1023,1 10
15.10.2017 09:00:00 10,0 8,8 5 3 11 6 ZO 1023,2 10
15.10.2017 08:00:00 9,6 8,4 5 3 - - ZO 1023,1 4,5
15.10.2017 07:00:00 10,3 9,5 5 3 11 6 ZO 1023,5 4,0
15.10.2017 06:00:00 9,7 8,5 4 2 7 4 O 1023,8 0,1
15.10.2017 05:00:00 11,4 10,1 4 2 - - - 1024,0 0,3
15.10.2017 04:00:00 11,3 10,3 5 3 7 4 O 1024,0 3,2
15.10.2017 03:00:00 11,6 10,4 5 3 7 4 ZO 1024,3 7
15.10.2017 02:00:00 12,1 10,8 5 3 - - ZO 1024,5 4,2
15.10.2017 01:00:00 11,3 10,5 5 3 7 4 ZO 1025,2 0,2
15.10.2017 00:00:00 12,1 11,0 2 1 4 2 - 1025,3 5
14.10.2017 23:00:00 12,2 11,2 4 2 - - ZO 1025,6 4,0
14.10.2017 22:00:00 12,6 11,9 2 1 4 2 O 1026,0 0,5
14.10.2017 21:00:00 13,2 11,9 4 2 7 4 OZO 1025,9 10
14.10.2017 20:00:00 15,4 12,9 2 1 - - - 1026,0 10
14.10.2017 19:00:00 19,3 14,4 4 2 18 10 WZW 1025,8 10
14.10.2017 18:00:00 20,6 14,4 11 6 18 10 WZW 1025,8 10
14.10.2017 17:00:00 21,0 14,2 9 5 - - WZW 1025,7 10
14.10.2017 16:00:00 20,2 14,5 15 8 25 14 ZZW 1025,7 10
14.10.2017 15:00:00 20,1 13,9 13 7 25 14 ZW 1026,2 10
14.10.2017 14:00:00 19,6 13,3 13 7 - - WZW 1026,6 10
14.10.2017 13:00:00 19,1 13,2 15 8 22 12 ZW 1026,9 10
14.10.2017 12:00:00 18,3 13,1 11 6 18 10 WZW 1027,2 10
14.10.2017 11:00:00 16,7 13,3 9 5 - - ZW 1027,1 10
14.10.2017 10:00:00 14,8 12,4 11 6 14 8 ZZW 1026,7 10
14.10.2017 09:00:00 11,2 10,0 8 4 11 6 ZZO 1026,6 10
14.10.2017 08:00:00 10,2 9,3 4 2 - - Z 1026,3 10
14.10.2017 07:00:00 13,2 11,6 8 4 11 6 ZW 1026,2 10
14.10.2017 06:00:00 13,1 11,5 4 2 11 6 ZZW 1026,1 6
14.10.2017 05:00:00 13,7 12,0 8 4 - - ZZW 1025,8 8
14.10.2017 04:00:00 13,8 12,2 9 5 11 6 ZZW 1025,9 10
14.10.2017 03:00:00 14,6 12,8 8 4 11 6 ZZW 1026,1 10
14.10.2017 02:00:00 15,0 13,0 5 3 - - ZZW - 10
14.10.2017 01:00:00 15,5 13,1 8 4 14 8 ZW 1025,9 10
14.10.2017 00:00:00 15,9 13,3 8 4 11 6 ZZW 1025,4 10
13.10.2017 23:00:00 16,4 13,5 8 4 - - ZZW 1025,3 10
13.10.2017 22:00:00 16,5 13,4 9 5 14 8 ZZW 1025,3 10
13.10.2017 21:00:00 16,9 13,5 8 4 11 6 Z 1025,1 10
13.10.2017 20:00:00 17,5 13,3 9 5 - - Z 1025,0 10
13.10.2017 19:00:00 18,4 13,5 8 4 22 12 ZZW 1024,9 10
13.10.2017 18:00:00 19,0 13,4 15 8 29 16 WZW 1025,0 10
13.10.2017 17:00:00 19,2 13,4 13 7 - - WZW 1025,0 10
13.10.2017 16:00:00 19,4 12,9 15 8 29 16 WZW 1025,0 10
13.10.2017 15:00:00 19,0 13,0 21 11 32 18 WZW 1025,2 10
13.10.2017 14:00:00 19,2 12,9 21 11 - - WZW 1025,1 10
13.10.2017 13:00:00 19,0 12,6 21 11 32 18 ZW 1025,2 10
13.10.2017 12:00:00 17,8 13,4 15 8 29 16 ZW 1025,1 10
13.10.2017 11:00:00 17,3 14,2 15 8 - - ZW 1025,1 10
13.10.2017 10:00:00 15,6 13,9 9 5 18 10 ZZW 1024,6 9
13.10.2017 09:00:00 14,5 13,3 13 7 18 10 ZZW 1024,5 9
13.10.2017 08:00:00 14,3 13,0 13 7 - - ZZW 1024,1 10
13.10.2017 07:00:00 14,1 12,7 8 4 14 8 ZW 1024,1 8
13.10.2017 06:00:00 13,8 12,2 11 6 18 10 ZW 1023,8 10
13.10.2017 05:00:00 13,3 11,3 8 4 - - ZZW 1023,8 10
13.10.2017 04:00:00 12,9 10,3 5 3 11 6 ZZW 1023,8 10
13.10.2017 03:00:00 12,5 9,8 8 4 11 6 ZZW 1023,9 10
13.10.2017 02:00:00 12,4 9,7 8 4 - - ZZW 1023,8 10
13.10.2017 01:00:00 12,1 9,4 8 4 11 6 ZW 1023,8 10
13.10.2017 00:00:00 12,6 9,5 8 4 11 6 ZW 1023,7 10
12.10.2017 23:00:00 13,0 9,6 5 3 - - ZZW 1023,8 10
12.10.2017 22:00:00 13,2 9,7 5 3 11 6 Z 1023,7 10
12.10.2017 21:00:00 14,5 9,8 8 4 14 8 ZW 1023,8 10
12.10.2017 20:00:00 15,4 9,5 8 4 - - ZW 1023,6 10
12.10.2017 19:00:00 16,4 9,1 8 4 22 12 ZW 1023,2 10
12.10.2017 18:00:00 17,1 8,9 13 7 29 16 ZW 1023,1 10
12.10.2017 17:00:00 17,8 8,3 18 10 - - WZW 1022,9 10
12.10.2017 16:00:00 17,0 7,6 18 10 36 19 W 1022,9 10
12.10.2017 15:00:00 16,6 7,7 16 9 36 19 WZW 1022,9 10
12.10.2017 14:00:00 16,3 8,3 21 11 - - W 1022,9 10
12.10.2017 13:00:00 15,6 8,3 18 10 40 21 W 1022,9 10
12.10.2017 12:00:00 15,1 9,3 18 10 36 19 W 1022,1 10
12.10.2017 11:00:00 14,0 10,1 18 10 - - WZW 1021,4 10
12.10.2017 10:00:00 12,7 9,7 16 9 29 16 WZW 1020,5 10
12.10.2017 09:00:00 12,0 9,8 15 8 25 14 WZW 1019,7 10
12.10.2017 08:00:00 12,2 9,8 13 7 - - WZW 1018,3 10
12.10.2017 07:00:00 12,7 9,5 16 9 29 16 W 1017,7 10
12.10.2017 06:00:00 13,5 9,8 18 10 36 19 W 1016,4 10
12.10.2017 05:00:00 14,5 10,7 24 13 - - W 1015,5 10
12.10.2017 04:00:00 15,3 12,8 22 12 40 21 W 1014,6 10
12.10.2017 03:00:00 15,7 12,5 22 12 40 21 WZW 1014,1 10
12.10.2017 02:00:00 16,4 11,5 21 11 - - ZW 1013,4 10
12.10.2017 01:00:00 16,2 11,1 22 12 40 21 ZW 1013,4 10
12.10.2017 00:00:00 16,2 10,6 22 12 40 21 ZW 1013,6 10
11.10.2017 23:00:00 15,3 10,2 21 11 - - ZZW 1013,8 10
11.10.2017 22:00:00 14,9 9,7 21 11 36 19 ZZW 1014,1 10
11.10.2017 21:00:00 15,1 9,2 21 11 32 18 ZZW 1014,3 10
11.10.2017 20:00:00 15,0 9,1 18 10 - - ZZW 1014,4 10
11.10.2017 19:00:00 15,1 9,2 16 9 40 21 ZW 1014,3 10
11.10.2017 18:00:00 15,5 9,4 22 12 40 21 ZW 1014,1 10
11.10.2017 17:00:00 15,6 9,3 24 13 - - ZW 1014,6 10
11.10.2017 16:00:00 15,7 9,5 22 12 47 25 ZW 1014,9 10
11.10.2017 15:00:00 16,1 9,1 22 12 40 21 ZW 1015,1 10
11.10.2017 14:00:00 16,2 10,6 24 13 - - ZZW 1015,4 10
11.10.2017 13:00:00 15,8 10,3 22 12 36 19 ZZW 1015,8 10
11.10.2017 12:00:00 15,5 10,5 21 11 36 19 ZW 1016,0 10
11.10.2017 11:00:00 15,1 10,6 21 11 - - ZW 1016,1 10

tt = temperatuur
td = dauwpunt
ff = windsnelheid
fx = windstoten
dd = windrichting
ppp = luchtdruk
vv = zicht

Weerstations in de omgeving